Showing default

BEIDOU 3M15, 43647

Orbit data source: Space-Track

BEIDOU 3M15, 43647 is a payload satellite owned by CNSA (CN) in MEO that was launched on Mon, 15 Oct 2018 UTC via a CHANG ZHENG 3B/YZ-1 launch vehicle from the Xichang Space Center, China (XSC). Payloads include a variety of satellites, spacecraft, and rockets equipped with specific instruments for various scientific and technological missions. These include communications satellites like Starlink; space stations such as the ISS; scientific satellites like the Hubble; Earth observation satellites from companies like Planet Labs, Umbra, and HawkEye 360; GPS; miniature CubeSats for education and research; and military/defense satellites.

Loading next visibility...
BEIDOU 3M15 details
Identifier
43647, 2018-078A
Orbit
MEO
Last TLE update7 hours ago
Origin
Flag of CNCNSA (CN / PRC)
ManufacturerSECM
MissionOperational Defense Navigation
Bus & MotorBD-3M/SAR, Unknown motor
Mass1,014 kg wet, ~850 kg dry
Launch date (UTC)
2018-10-15 (6 years ago)
Launch vehicle
CHANG ZHENG 3B/YZ-1
Launch site
Xichang Space Center, China (XSC)
Object type
Payload
Rocket body
Debris
Shape & HBRBox + 2 Pan, 10 m
Radar Cross Section8.984 m², Large (>1 m²)

Expand to show TLE details & history

TLE from 7 hours ago
0 BEIDOU 3M15
1 43647U 18078A   24361.53427258 -.00000087  00000-0  00000-0 0  9996
2 43647  54.5657 318.7629 0007387  10.2601 349.7480  1.86232384 42142
Epoch: 2024-12-26T12:49Z
Definitive object data (Epoch: 2024-12-26T12:49:21.15Z)
Latitude
Longitude30.89259°
Altitude21,507.919 km
Speed3.782 km/s
True Right ascension21h 14m 58s
True Declination0° 00' 00"
Sunlit
Object was in daylight at TLE epoch
Visualization TLE readout
Latitude-13.93179°
Longitude-138.96715°
Altitude21,551.597 km
Speed3.776 km/s
Apparent Right ascension09h 32m 13s
Apparent Declination-19° 10' 18"
Sunlit
Object is in daylight
Visualization observer readout
Local Sidereal Time19:15:26
Azimuth295.167° NW
Elevation-54.089°
Doppler factor1
Orbital elements
Apogee altitude21,548.551 km
Perigee altitude21,507.323 km
Semi-major axis27,906.074 km
Eccentricity0.0007387
Inclination54.5657°
RAAN318.7629°
Arg. of periapsis10.2601°
True anomaly349.73292°
Mean anomaly349.748°
Eccentric anomaly349.74046°
Mean motion0.46558 °/min
BSTARUnknown
Orbital period773.23 mins
Loading maneuver chart data...
Loading historical data...
Loading historical data...
Loading historical data...
Loading historical data...
Loading historical data...
Loading historical data...
Loading historical data...
Other satellites on launch #78 in the year 2018 (2018-10-15 UTC)

BEIDOU 3M15 Visibility forecast

Observer location: undefined°, undefined

Span
Click to sort rows by Start time (UTC) header in descending order
Start Az.
Max El. time (UTC)
Max El. Az.
Max El.
End time (UTC)
End Az.
448 mins2024-12-27 01:39:41.992Z247.252° WSW2024-12-27 05:50:41.992Z40.143° NE44.248°2024-12-27 09:07:41.992Z152.518° SSE
|